Location: Darmstadt
(49.8706°N, 8.6494°E)
Time: 07:25:32
(UTC+01:00)

COSMO-SKYMED 1 - Pass Details

Date: 31 October 2020
Orbit: 621 x 623 km, 97.9° (Epoch: 03 December)

Event Time Altitude Azimuth Distance (km) Brightness Sun altitude
Rises 18:36:45 0° 14° (NNE) 2,917 5.8 -15.4°
Reaches altitude 10° 18:38:58 10° 16° (NNE) 2,005 5.0 -15.8°
Maximum altitude 18:43:20 80° 104° (ESE) 638 2.5 -16.5°
Drops below altitude 10° 18:47:40 10° 191° (SSW) 1,988 5.3 -17.2°
Sets 18:49:51 0° 193° (SSW) 2,889 6.2 -17.5°
